| time (UTC) | temp F | wind direction | speed MPH | gust MPH | rain 1hr in | rain 24hr in | rain mn in | humidity % | barometer mb |
| 20260504044554 | 55 | 217 | 0.0 | 0.0 | 0.00 | 0.00 | 0.00 | 46 | 1004.4 |
| 20260504043057 | 55 | 288 | 0.0 | 0.0 | 0.00 | 0.00 | 0.00 | 43 | 1004.4 |
| 20260504041551 | 56 | 5 | 0.0 | 1.0 | 0.00 | 0.00 | 0.00 | 42 | 1004.5 |
| 20260504040048 | 56 | 138 | 0.0 | 0.0 | 0.00 | 0.00 | 0.00 | 45 | 1004.5 |
| 20260504034545 | 56 | 209 | 0.0 | 0.0 | 0.00 | 0.00 | 0.00 | 44 | 1004.1 |
| 20260504033039 | 61 | 188 | 0.0 | 0.0 | 0.00 | 0.00 | 0.00 | 36 | 1004.1 |
| 20260504031535 | 65 | 13 | 1.0 | 6.0 | 0.00 | 0.00 | 0.00 | 29 | 1003.8 |
| 20260504030034 | 64 | 323 | 0.0 | 6.0 | 0.00 | 0.00 | 0.00 | 31 | 1003.8 |
| 20260504024535 | 63 | 224 | 0.0 | 5.0 | 0.00 | 0.00 | 0.00 | 33 | 1003.7 |
| 20260504023003 | 65 | 0.0 | 0.0 | 0.00 | 0.00 | 0.00 | 31 | 1003.6 | |
| 20260504021502 | 67 | 288 | 0.0 | 1.0 | 0.00 | 0.00 | 0.00 | 30 | 1003.6 |
| 20260504020041 | 67 | 205 | 0.0 | 3.0 | 0.00 | 0.00 | 0.00 | 31 | 1003.5 |
| 20260504014538 | 69 | 329 | 0.0 | 2.0 | 0.00 | 0.00 | 0.00 | 29 | 1003.6 |
| 20260504013118 | 70 | 196 | 2.0 | 14.0 | 0.00 | 0.00 | 0.00 | 27 | 1003.5 |
| 20260504011600 | 72 | 311 | 0.0 | 9.0 | 0.00 | 0.00 | 0.00 | 25 | 1003.7 |
| 20260504010054 | 72 | 200 | 4.0 | 16.0 | 0.00 | 0.00 | 0.00 | 24 | 1003.8 |
| 20260504004625 | 73 | 9 | 0.0 | 18.0 | 0.00 | 0.00 | 0.00 | 24 | 1003.8 |
| 20260504003059 | 73 | 174 | 8.0 | 18.0 | 0.00 | 0.00 | 0.00 | 25 | 1003.9 |
| 20260504001619 | 73 | 56 | 3.0 | 16.0 | 0.00 | 0.00 | 0.00 | 25 | 1004.1 |
| 20260504000020 | 74 | 0.0 | 9.0 | 0.00 | 0.00 | 0.00 | 23 | 1004.1 | |
| 20260503234518 | 74 | 190 | 2.0 | 15.0 | 0.00 | 0.00 | 0.00 | 21 | 1004.2 |
| 20260503233047 | 75 | 329 | 9.0 | 17.0 | 0.00 | 0.00 | 0.00 | 18 | 1004.3 |
| 20260503231545 | 75 | 133 | 2.0 | 13.0 | 0.00 | 0.00 | 0.00 | 17 | 1004.4 |
| 20260503230056 | 75 | 165 | 4.0 | 16.0 | 0.00 | 0.00 | 0.00 | 19 | 1004.6 |
| 20260503224539 | 75 | 328 | 1.0 | 13.0 | 0.00 | 0.00 | 0.00 | 23 | 1004.8 |
| 20260503223035 | 74 | 117 | 0.0 | 13.0 | 0.00 | 0.00 | 0.00 | 22 | 1005.0 |
| 20260503221533 | 75 | 101 | 1.0 | 10.0 | 0.00 | 0.00 | 0.00 | 22 | 1005.2 |
| 20260503220040 | 75 | 328 | 0.0 | 12.0 | 0.00 | 0.00 | 0.00 | 20 | 1005.5 |
| 20260503214524 | 75 | 242 | 1.0 | 12.0 | 0.00 | 0.00 | 0.00 | 20 | 1005.8 |
| 20260503213021 | 74 | 98 | 2.0 | 13.0 | 0.00 | 0.00 | 0.00 | 21 | 1006.1 |
| 20260503211518 | 74 | 79 | 11.0 | 21.0 | 0.00 | 0.00 | 0.00 | 20 | 1006.5 |
| 20260503210046 | 74 | 238 | 0.0 | 21.0 | 0.00 | 0.00 | 0.00 | 21 | 1006.8 |
| 20260503204543 | 73 | 0.0 | 11.0 | 0.00 | 0.00 | 0.00 | 21 | 1007.1 | |
| 20260503203047 | 73 | 163 | 0.0 | 11.0 | 0.00 | 0.00 | 0.00 | 21 | 1007.3 |
| 20260503201535 | 73 | 1 | 0.0 | 7.0 | 0.00 | 0.00 | 0.00 | 29 | 1007.5 |
| 20260503200030 | 72 | 328 | 4.0 | 13.0 | 0.00 | 0.00 | 0.00 | 31 | 1007.8 |
| 20260503194538 | 71 | 258 | 0.0 | 7.0 | 0.00 | 0.00 | 0.00 | 32 | 1008.0 |
| 20260503193020 | 71 | 243 | 8.0 | 17.0 | 0.00 | 0.00 | 0.00 | 35 | 1008.3 |
| 20260503191517 | 70 | 53 | 1.0 | 10.0 | 0.00 | 0.00 | 0.00 | 33 | 1008.7 |
| 20260503190013 | 69 | 0.0 | 9.0 | 0.00 | 0.00 | 0.00 | 35 | 1009.1 | |
| 20260503184521 | 69 | 311 | 0.0 | 10.0 | 0.00 | 0.00 | 0.00 | 34 | 1009.4 |
| 20260503183009 | 69 | 307 | 2.0 | 9.0 | 0.00 | 0.00 | 0.00 | 35 | 1009.6 |
| 20260503181536 | 69 | 261 | 0.0 | 17.0 | 0.00 | 0.00 | 0.00 | 35 | 1009.8 |
| 20260503180035 | 68 | 0.0 | 3.0 | 0.00 | 0.00 | 0.00 | 35 | 1010.2 | |
| 20260503174526 | 68 | 293 | 3.0 | 15.0 | 0.00 | 0.00 | 0.00 | 34 | 1010.5 |
| 20260503173023 | 67 | 129 | 0.0 | 13.0 | 0.00 | 0.00 | 0.00 | 34 | 1010.7 |
| 20260503171520 | 66 | 174 | 0.0 | 14.0 | 0.00 | 0.00 | 0.00 | 39 | 1010.9 |
| 20260503081507 | 40 | 283 | 0.0 | 0.0 | 0.00 | 0.00 | 0.00 | 85 | 1013.9 |
| 20260503071549 | 43 | 338 | 0.0 | 0.0 | 0.00 | 0.00 | 0.00 | 80 | 1014.0 |